Flag for Norway Weather past 2 weeks in Tromsø, Norway

Now
38 °F

Overcast.


Feels Like: 31 °F
Forecast: 35 / 40 °F
Wind: 9 mph from South

Location: Tromso / Langnes

Current Time: Mar 6, 2015 at 2:31:09 PM

Latest Report: Mar 6, 2015 at 1:00 PM


Visibility: 22 mi

Pressure: 29.57 "Hg

Humidity: 78%

Dew point: 32 °F

Location of TromsøLocation

Historic Weather in Tromsø — Graph

°F

Tromsø temperature yesterday

Maximum temperature yesterday: 35 °F (at 9:00 PM)
Minimum temperature yesterday: 28 °F (at 12:00 AM)
Average temperature yesterday: 31 °F

Past Weeks' High & Low Weather Summary

 TemperatureHumidityPressure
High41 °F (Mar 2, 11:00 AM)99% (Mar 4, 7:00 AM)30.00 "Hg (Mar 4, 7:00 AM)
Low18 °F (Feb 23, 1:00 AM)51% (Mar 2, 11:00 AM)28.79 "Hg (Feb 21, 3:00 AM)
Average34 °F79%29.29 "Hg
* Reported Feb 19 1:00 PM — Mar 6 1:00 PM, Tromsø, Weather by CustomWeather, © 2015

Note: Actual official high and low records may vary slightly from our data, if they occured in-between our weather recording intervals... More about our weather records

Advertising

Tromsø weather history for previous 24 hours

 ConditionsComfort  
Time TempWeatherWind HumidityBarometerVisibility
1:00 PM
Fri, Mar 6
38 °FOvercast.9 mph78%29.57 "Hg22 mi
12:00 PM37 °FOvercast.9 mph83%29.55 "Hg25 mi
11:00 AM36 °FHeavy rain. Light fog.9 mph85%29.54 "Hg6 mi
10:00 AM37 °FRain showers. Overcast.8 mph76%29.50 "Hg14 mi
9:00 AM37 °FOvercast.10 mph74%29.50 "Hg25 mi
8:00 AM35 °FOvercast.12 mph77%29.47 "Hg14 mi
7:00 AM33 °FRain showers. Partly sunny.13 mph84%29.47 "Hg9 mi
6:00 AM32 °FDrizzle. Overcast.13 mph88%29.47 "Hg9 mi
5:00 AM32 °FLight snow. Ice fog.14 mph90%29.50 "Hg1 mi
3:00 AM33 °FSnow flurries. Light fog.10 mph72%29.47 "Hg7 mi
2:00 AM33 °FOvercast.12 mph59%29.47 "Hg31 mi
1:00 AM33 °FOvercast.13 mph58%29.47 "Hg31 mi
12:00 AM34 °FOvercast.13 mph56%29.47 "Hg31 mi
11:00 PM
Thu, Mar 5
33 °FPassing clouds.14 mph59%29.50 "Hg31 mi
10:00 PM35 °FClear.12 mph56%29.55 "Hg31 mi
9:00 PM35 °FClear.7 mph60%29.59 "Hg28 mi
7:00 PM35 °FPassing clouds.9 mph55%29.68 "Hg31 mi
6:00 PM32 °FClear.2 mph69%29.74 "Hg31 mi
5:00 PM32 °FClear.5 mph73%29.79 "Hg28 mi
4:00 PM33 °FSunny.5 mph73%29.83 "Hg31 mi
3:00 PM33 °FSunny.6 mph73%29.86 "Hg28 mi
2:00 PM32 °FSunny.6 mph75%29.90 "Hg25 mi
Weather by CustomWeather, © 2015

See weather overviewHow to use our weather pages